Chelan, Washington, United States (98816)
Lat: 47.84N, Lon: 120.02W
Wx Zone: WAZ041
Local Info
Past Weather Observations for Today

NOTE: This archive is for the closest National Weather Service station to Chelan. Information may differ from the station used for current weather conditions.

Time Weather Temperature Dewpoint Humidity Pressure Winds Precip Visibility
17:55
Partly Cloudy
61°F / 16°C 30°F / -1°C 31% 29.77 in
(1008 mb)
WNW 13.8 mph
(WNW 22 kph)
- 10SM
16:55
Partly Cloudy
63°F / 17°C 21°F / -6°C 20% 29.74 in
(1007 mb)
SSW 20.7 mph
(SSW 33 kph)
- 10SM
15:55
Partly Cloudy
63°F / 17°C 25°F / -4°C 24% 29.74 in
(1007 mb)
SSW 12.7 mph
(SSW 20 kph)
- 10SM
14:55
Partly Cloudy
63°F / 17°C 30°F / -1°C 30% 29.74 in
(1007 mb)
SSW 12.7 mph
(SSW 20 kph)
- 10SM
13:55
Mostly Cloudy
61°F / 16°C 30°F / -1°C 31% 29.74 in
(1007 mb)
SSW 18.4 mph
(SSW 30 kph)
0.00 in
(0.00 mm)
10SM
12:55
Partly Cloudy
Light Rain
61°F / 16°C 37°F / 3°C 42% 29.74 in
(1007 mb)
WNW 5.8 mph
(WNW 9 kph)
0.00 in
(0.00 mm)
10SM
11:55
Clear
57°F / 14°C 43°F / 6°C 59% 29.74 in
(1007 mb)
Calm - 10SM
10:55
Partly Cloudy
52°F / 11°C 43°F / 6°C 72% 29.74 in
(1007 mb)
SSW 4.6 mph
(SSW 7 kph)
- 10SM
09:55
Mostly Cloudy
50°F / 10°C 41°F / 5°C 71% 29.74 in
(1007 mb)
W 6.9 mph
(W 11 kph)
- 10SM
08:55
Partly Cloudy
48°F / 9°C 39°F / 4°C 71% 29.71 in
(1006 mb)
N 8.1 mph
(N 13 kph)
0.00 in
(0.00 mm)
10SM
08:06
Overcast
Light Rain
46°F / 8°C 39°F / 4°C 76% 29.71 in
(1006 mb)
Variable 4.6 mph
(Variable 7 kph)
0.00 in
(0.00 mm)
10SM
07:55
Overcast
Light Rain
45°F / 7°C 39°F / 4°C 81% 29.71 in
(1006 mb)
NNW 9.2 mph
(NNW 15 kph)
0.01 in
(0.25 mm)
7SM
07:43
Overcast
Light Rain
45°F / 7°C 39°F / 4°C 81% 29.71 in
(1006 mb)
NW 10.4 mph
(NW 17 kph)
0.01 in
(0.25 mm)
8SM
07:14
Overcast
45°F / 7°C 39°F / 4°C 81% 29.71 in
(1006 mb)
NW 11.5 mph
(NW 19 kph)
- 10SM
06:55
Overcast
46°F / 8°C 41°F / 5°C 82% 29.68 in
(1005 mb)
Calm - 10SM
06:51
Mostly Cloudy
46°F / 8°C 39°F / 4°C 76% 29.68 in
(1005 mb)
N 4.6 mph
(N 7 kph)
- 10SM
06:32
Mostly Cloudy
46°F / 8°C 39°F / 4°C 76% 29.68 in
(1005 mb)
NNW 3.5 mph
(NNW 6 kph)
- 10SM
06:25
Partly Cloudy
45°F / 7°C 39°F / 4°C 81% 29.68 in
(1005 mb)
Calm - 10SM
05:55
Overcast
45°F / 7°C 39°F / 4°C 81% 29.68 in
(1005 mb)
SE 3.5 mph
(SE 6 kph)
- 10SM
05:50
Overcast
45°F / 7°C 39°F / 4°C 81% 29.68 in
(1005 mb)
SE 5.8 mph
(SE 9 kph)
- 10SM
05:37
Overcast
45°F / 7°C 37°F / 3°C 76% 29.68 in
(1005 mb)
NNW 8.1 mph
(NNW 13 kph)
- 10SM
04:55
Overcast
45°F / 7°C 41°F / 5°C 87% 29.65 in
(1004 mb)
NE 3.5 mph
(NE 6 kph)
- 10SM
03:55
Overcast
46°F / 8°C 43°F / 6°C 87% 29.65 in
(1004 mb)
E 5.8 mph
(E 9 kph)
0.01 in
(0.25 mm)
9SM
03:26
Overcast
Light Rain
46°F / 8°C 43°F / 6°C 87% 29.68 in
(1005 mb)
Calm 0.00 in
(0.00 mm)
8SM
02:55
Overcast
Light Rain
46°F / 8°C 43°F / 6°C 87% 29.68 in
(1005 mb)
NNW 5.8 mph
(NNW 9 kph)
0.00 in
(0.00 mm)
10SM
02:51
Overcast
Light Rain
46°F / 8°C 43°F / 6°C 87% 29.68 in
(1005 mb)
NW 8.1 mph
(NW 13 kph)
0.00 in
(0.00 mm)
10SM
02:41
Overcast
46°F / 8°C 43°F / 6°C 87% 29.68 in
(1005 mb)
WNW 5.8 mph
(WNW 9 kph)
0.00 in
(0.00 mm)
10SM
01:55
Overcast
46°F / 8°C 43°F / 6°C 87% 29.68 in
(1005 mb)
NW 4.6 mph
(NW 7 kph)
0.00 in
(0.00 mm)
10SM
01:20
Overcast
48°F / 9°C 45°F / 7°C 87% 29.68 in
(1005 mb)
SSW 3.5 mph
(SSW 6 kph)
0.00 in
(0.00 mm)
10SM
00:55
Overcast
Light Rain
48°F / 9°C 45°F / 7°C 87% 29.71 in
(1006 mb)
SE 9.2 mph
(SE 15 kph)
0.01 in
(0.25 mm)
10SM
00:43
Overcast
48°F / 9°C 45°F / 7°C 87% 29.71 in
(1006 mb)
SSE 11.5 mph
(SSE 19 kph)
0.01 in
(0.25 mm)
10SM
Time Weather Temperature Dewpoint Humidity Pressure Winds Precip Visibility


Weather for websites

WeatherForYou.com, LLC is not responsible for any damages or problems caused by this service. Current weather conditions are obtained from the closest station including government and personal stations which may have varying degrees of accuracy. Weather forecasts are derived from the NOAA NDFD. Like all things, this site belongs to Jesus Christ... He just trusts me to maintain it. If you have any questions or comments email webmaster@weatherforyou.com

Copyright © 2014, WeatherForYou.com LLC. All rights reserved.